ピゴット-リニア-コワルスキー彗星

226P/Pigott-LINEAR-Kowalski (2023)

English version
Home page
Updated on February 29, 2024

---------------------------------------------------------------------

・ プロフィール

・ 写真集

・ 軌道要素

Epoch 2024 Mar. 31.0 TT = JDT 2460400.5
T 2023 Dec. 27.18755 TT                                 Rudenko
q   1.7736742            (2000.0)            P               Q
n   0.13477858     Peri.  341.04944     +0.74463911     -0.35924011
a   3.7675192      Node    54.01205     +0.66609993     +0.34603394
e   0.5292196      Incl.   44.04635     +0.04270234     +0.86672202
P   7.31
>From 1749 observations 1995 Oct. 29-2024 Feb. 22, mean residual 1".3.
     Nongravitational parameters A1 = -0.41, A2 = +0.2114.

・ 星図

・ 光度変化

        m1 = 5.5 + 5 logΔ + 35 log r(t - 15)

---------------------------------------------------------------------

軌道要素はM.P.E.C. 2024-D126に掲載されたものです。
星図はステラナビゲータ Ver.11 (アストロアーツ) で作成したものです。
光度グラフはComet for Windowsで作成したものです。

---------------------------------------------------------------------

Copyright(C) Seiichi Yoshida (comet@aerith.net). All rights reserved.